VLG5MX LEZL-GMMI

Flight info

Callsign VLG5MX
Flight time N/A
Altitude 35000
Route CLANA DCT KORNO UN857 IBALU UR724 ESS
Aircraft A21N/M-SDE2E3FGHIRWXY/LB1

Departure

Time 2026-05-04 21:19
Airport Seville Airport (LEZL)

Arrival

Time N/A
Airport Essaouira-Mogador Airport (GMMI)
Time Latitude Longitude Altitude Speed Heading
2026-05-04 21:19 37.43900 -6.04029 5694 ft 265 kts 253°
2026-05-04 21:19 37.42957 -6.06037 6708 ft 271 kts 224°
2026-05-04 21:19 37.41362 -6.07248 7792 ft 273 kts 197°
2026-05-04 21:20 37.39442 -6.07430 8763 ft 284 kts 177°
2026-05-04 21:20 37.37457 -6.07162 9733 ft 290 kts 177°
2026-05-04 21:20 37.35428 -6.06888 10544 ft 300 kts 178°
2026-05-04 21:20 37.33269 -6.06660 10940 ft 323 kts 180°
2026-05-04 21:21 37.30951 -6.06467 11360 ft 342 kts 180°
2026-05-04 21:21 37.28559 -6.06288 12189 ft 347 kts 180°
2026-05-04 21:21 37.26134 -6.06113 13053 ft 351 kts 181°
2026-05-04 21:21 37.23687 -6.05938 13903 ft 355 kts 181°
2026-05-04 21:22 37.21204 -6.05760 14687 ft 359 kts 181°
2026-05-04 21:22 37.18698 -6.05578 15450 ft 362 kts 181°
2026-05-04 21:22 37.16195 -6.05752 16181 ft 359 kts 197°
2026-05-04 21:22 37.13871 -6.06789 16910 ft 354 kts 213°
2026-05-04 21:23 37.11802 -6.08457 17633 ft 355 kts 218°
2026-05-04 21:23 37.09730 -6.10175 18380 ft 359 kts 217°
2026-05-04 21:23 37.07633 -6.11898 19019 ft 362 kts 217°
2026-05-04 21:23 37.07093 -6.12341 19192 ft 363 kts 218°
2026-05-04 21:24 37.04973 -6.14085 19842 ft 366 kts 218°
2026-05-04 21:24 37.03420 -6.15364 20290 ft 368 kts 218°